Regional Weather Roundup
Issued by NWS Midland/Odessa, TX

Home | Current Version | Previous Version | Text Only | Print | Product List | Glossary On
Versions: 1 2 3 4 5 6 7 8 9 10 11 12 13 14 15 16 17 18 19 20 21 22 23 24 25 26 27 28 29 30 31 32 33 34 35 36 37 38 39 40 41 42 43 44 45 46 47 48 49 50
000
ASUS44 KMAF 300010
RWRMAF
MIDLAND AREA WEATHER ROUNDUP
NATIONAL WEATHER SERVICE MIDLAND TX
700 PM CDT SUN MAR 29 2015

...IN SOUTHWEST TEXAS AND SOUTHEAST NEW MEXICO...

CITY           SKY/WX    TMP DP  RH WIND       PRES   REMARKS
ALPINE         SUNNY     81  20  10 E10       30.19R
ANDREWS        FAIR      81  35  19 NE18      30.08R
ARTESIA        SUNNY     84  27  12 E8        30.07S
BIG SPRING     SUNNY     82  36  19 NE25G32   30.06R
CARLSBAD       SUNNY     86  24  10 E7        30.04R
DRYDEN           N/A     88  47  24 SE12      29.98R
FORT STOCKTON  SUNNY     88  18   7 NW6       30.03S
GUAD PASS      CLOUDY    74  23  15 NE13      30.20R
HOBBS          SUNNY     81  25  12 NE16G22   30.11R
MARFA          SUNNY     79  19  11 NE6       30.18R
MIDLAND AIRPK  SUNNY     82  36  19 NE22G31   30.06R
MIDLAND INTL   MOSUNNY   84  39  20 NE25G35   30.04R
ODESSA         SUNNY     86  33  15 NE17      30.05R
PECOS          SUNNY     88  33  13 W6        30.00S
PRESIDIO       FAIR      91  14   6 W7        30.01S
SEMINOLE       SUNNY     80  29  15 NE14G24   30.11R
SNYDER         SUNNY     78  41  27 NE22G28   30.08R
WINK           SUNNY     87  27  11 NE15      30.01R
$$
...OTHER STATIONS IN TEXAS...

CITY           SKY/WX    TMP DP  RH WIND       PRES   REMARKS
ABILENE        SUNNY     80  48  32 N23G31    30.01R
AMARILLO       SUNNY     70  22  16 NE17      30.18R
AUSTIN         CLEAR     77  56  48 S18G29    30.01S
BROWNSVILLE    CLEAR     75  64  68 S20G28    30.09R
CORPUS CHRISTI CLEAR     74  63  68 SE25G33   30.06S
DALLAS FTW     PTCLDY    80  55  42 S17       29.95S
DEL RIO        SUNNY     87  54  32 S16       29.94S
EL PASO        CLOUDY    86   9   5 W13       30.08S
HOUSTON INT    PTCLDY    76  60  57 S10G22    30.09S
LUBBOCK        PTSUNNY   76  24  14 NE22G28   30.13R
SAN ANGELO     SUNNY     89  44  20 S9        29.93S
SAN ANTONIO    SUNNY     80  59  48 SE16G22   30.02F
WACO           CLEAR     77  55  46 S17       29.97S
WICHITA FALLS  NOT AVBL
$$
...OTHER LOCATIONS IN NEW MEXICO...

CITY           SKY/WX    TMP DP  RH WIND       PRES   REMARKS
ALAMAGORDO     PTSUNNY   82   9   6 CALM      30.10S
ALBUQUERQUE    PTSUNNY   76  16  10 SE7       30.13S
CANNON AFB     SUNNY     71  25  18 E17       30.18S
CLOVIS         SUNNY     70  25  18 E18       30.19S
HOLLOMAN AFB   PTSUNNY   83   6   5 CALM      30.07F
ROSWELL        MOSUNNY   82  20  10 E9        30.09R
RUIDOSO        CLOUDY    66  19  16 E16G22    30.28S
SANTA FE       MOSUNNY   72  18  13 S15G23    30.18R
TRUTH OR CONSE CLOUDY    80  11   7 W12G22    30.10F
TUCUMCARI      MOSUNNY   71  21  15 E15       30.17F
$$


USA.gov is the U.S. government's official web portal to all federal, state and local government web resources and services.